Waskish, MN

9:47 PM CDT on May 25, 2018 (GMT -0500)
Waskish Municipal

Weather History for KVWU - March, 2014

Change the Weather History Date:

Tuesday, March 4, 2014

  Actual Average (KBDE) Record (KBDE)
Temperature  
Mean Temperature 0 °F -  
Max Temperature 19 °F 31 °F 51 °F (1987)
Min Temperature -18 °F 4 °F -22 °F (1952)
Degree Days  
Heating Degree Days 64    
Moisture  
Dew Point -10 °F    
Average Humidity 65    
Maximum Humidity 92    
Minimum Humidity 33    
Precipitation  
Precipitation 0.00 in - - ()
Sea Level Pressure  
Sea Level Pressure 30.22 in    
Wind  
Wind Speed 1 mph (North)    
Max Wind Speed 9 mph    
Max Gust Speed -    
Visibility 10 miles    
Events Snow    
Averages and records for this station are not official NWS values.
T = Trace of Precipitation, MM = Missing Value Source: NWS Daily Summary

Daily Weather History Graph

Daily Weather History Graph

Search for Another Location

Airport or City:

Astronomy

Mar. 04, 2014 Rise Set
Actual Time 6:53 AM CST 6:07 PM CST
Civil Twilight 6:22 AM CST 6:38 PM CST
Nautical Twilight 5:46 AM CST 7:14 PM CST
Astronomical Twilight 5:09 AM CST 7:50 PM CST
Moon 8:21 AM CST (3/4) 10:36 PM CST (3/4)
Length of Visible Light 12h 16m
Length of Day
11h 13m
Waxing Crescent, 15% of the Moon is Illuminated
Mar 4
Waxing Crescent
Mar 8
First Quarter
Mar 16
Full
Mar 23
Last Quarter
Mar 30
New

Hourly Weather History & Observations

Time (CST) Temp. Windchill Dew Point Humidity Pressure Visibility Wind Dir Wind Speed Gust Speed Precip Events Conditions
12:13 AM 1.4 °F - -2.2 °F 85% 30.19 in 10.0 mi Calm Calm - N/A Snow Light Snow
12:33 AM 1.4 °F - -2.2 °F 85% 30.19 in 10.0 mi Calm Calm - N/A Snow Light Snow
12:53 AM 1.4 °F - -2.2 °F 85% 30.18 in 10.0 mi Calm Calm - N/A Snow Light Snow
1:13 AM -0.4 °F - -4.0 °F 85% 30.18 in 7.0 mi Calm Calm - N/A Snow Light Snow
1:33 AM -2.2 °F - -5.8 °F 85% 30.18 in 4.0 mi Calm Calm - N/A Snow Light Snow
1:54 AM -4.0 °F - -7.6 °F 85% 30.18 in 10.0 mi Calm Calm - N/A Snow Light Snow
2:13 AM -5.8 °F - -9.4 °F 84% 30.18 in 2.5 mi Calm Calm - N/A   Overcast
2:33 AM -7.6 °F - -11.2 °F 84% 30.18 in 10.0 mi Calm Calm - N/A   Overcast
2:54 AM -7.6 °F - -11.2 °F 84% 30.18 in 10.0 mi Calm Calm - N/A   Overcast
3:13 AM -9.4 °F - -13.0 °F 84% 30.16 in 10.0 mi Calm Calm - N/A   Mostly Cloudy
3:33 AM -11.2 °F - -14.8 °F 84% 30.16 in 7.0 mi Calm Calm - N/A   Scattered Clouds
3:53 AM -11.2 °F - -16.6 °F 77% 30.17 in 10.0 mi Calm Calm - N/A   Scattered Clouds
4:13 AM -11.2 °F - -16.6 °F 77% 30.17 in 10.0 mi Calm Calm - N/A   Clear
4:33 AM -14.8 °F - -18.4 °F 84% 30.17 in 10.0 mi Calm Calm - N/A   Clear
4:53 AM -14.8 °F - -18.4 °F 84% 30.18 in 10.0 mi Calm Calm - N/A   Clear
5:13 AM -14.8 °F - -18.4 °F 84% 30.19 in 10.0 mi Calm Calm - N/A   Clear
5:34 AM -16.6 °F - -20.2 °F 84% 30.19 in 10.0 mi Calm Calm - N/A   Clear
5:53 AM -16.6 °F - -20.2 °F 84% 30.19 in 10.0 mi Calm Calm - N/A   Clear
6:13 AM -16.6 °F - -22.0 °F 76% 30.19 in 7.0 mi Calm Calm - N/A   Clear
6:33 AM -18.4 °F - -23.8 °F 76% 30.19 in 10.0 mi Calm Calm - N/A   Clear
6:53 AM -16.6 °F - -22.0 °F 76% 30.19 in 10.0 mi Calm Calm - N/A   Clear
7:13 AM -16.6 °F - -20.2 °F 84% 30.19 in 10.0 mi Calm Calm - N/A   Clear
7:34 AM -14.8 °F - -20.2 °F 77% 30.18 in 10.0 mi Calm Calm - N/A   Clear
7:53 AM -14.8 °F - -18.4 °F 84% 30.19 in 10.0 mi Calm Calm - N/A   Clear
8:13 AM -9.4 °F - -14.8 °F 77% 30.19 in 10.0 mi Calm Calm - N/A   Clear
8:34 AM -5.8 °F - -7.6 °F 92% 30.19 in 10.0 mi Calm Calm - N/A   Clear
8:53 AM -2.2 °F - -7.6 °F 78% 30.20 in 10.0 mi Calm Calm - N/A   Clear
9:13 AM -2.2 °F - -9.4 °F 71% 30.21 in 10.0 mi Calm Calm - N/A   Clear
9:34 AM -0.4 °F - -7.6 °F 72% 30.21 in 10.0 mi Calm Calm - N/A   Clear
9:53 AM -0.4 °F - -5.8 °F 78% 30.22 in 10.0 mi Calm Calm - N/A   Clear
10:13 AM 1.4 °F - -5.8 °F 72% 30.22 in 10.0 mi Calm Calm - N/A   Clear
10:34 AM 3.2 °F - -2.2 °F 78% 30.21 in 10.0 mi Calm Calm - N/A   Clear
10:53 AM 6.8 °F - -2.2 °F 67% 30.22 in 10.0 mi Calm Calm - N/A   Clear
11:13 AM 8.6 °F - -0.4 °F 67% 30.22 in 10.0 mi Calm Calm - N/A   Clear
11:34 AM 8.6 °F 2.0 °F -2.2 °F 62% 30.22 in 10.0 mi West 3.5 mph - N/A   Clear
11:53 AM 10.4 °F - -0.4 °F 62% 30.22 in 10.0 mi Calm Calm - N/A   Clear
12:13 PM 12.2 °F - -2.2 °F 53% 30.22 in 10.0 mi Calm Calm - N/A   Clear
12:34 PM 12.2 °F 6.1 °F -2.2 °F 53% 30.21 in 10.0 mi West 3.5 mph - N/A   Clear
12:53 PM 12.2 °F 4.3 °F -2.2 °F 53% 30.21 in 10.0 mi West 4.6 mph - N/A   Clear
1:13 PM 14.0 °F 6.5 °F -0.4 °F 53% 30.20 in 10.0 mi WNW 4.6 mph - N/A   Clear
1:34 PM 15.8 °F 8.6 °F -0.4 °F 49% 30.19 in 10.0 mi WNW 4.6 mph - N/A   Clear
1:53 PM 15.8 °F 8.6 °F -0.4 °F 49% 30.19 in 10.0 mi WNW 4.6 mph - N/A   Clear
2:13 PM 17.6 °F 10.7 °F -2.2 °F 42% 30.19 in 10.0 mi NNE 4.6 mph - N/A   Clear
2:33 PM 19.4 °F 12.8 °F -4.0 °F 36% 30.19 in 10.0 mi North 4.6 mph - N/A   Clear
2:53 PM 19.4 °F - -5.8 °F 33% 30.20 in 10.0 mi Calm Calm - N/A   Clear
3:13 PM 19.4 °F - -5.8 °F 33% 30.20 in 10.0 mi Calm Calm - N/A   Clear
3:33 PM 19.4 °F 12.8 °F -4.0 °F 36% 30.20 in 10.0 mi North 4.6 mph - N/A   Clear
3:53 PM 19.4 °F 11.5 °F -4.0 °F 36% 30.20 in 10.0 mi North 5.8 mph - N/A   Clear
4:13 PM 19.4 °F 10.4 °F -4.0 °F 36% 30.20 in 10.0 mi NNE 6.9 mph - N/A   Clear
4:33 PM 19.4 °F 8.6 °F -5.8 °F 33% 30.20 in 10.0 mi North 9.2 mph - N/A   Clear
4:53 PM 17.6 °F 6.4 °F -5.8 °F 35% 30.20 in 10.0 mi North 9.2 mph - N/A   Clear
5:13 PM 17.6 °F 6.4 °F -5.8 °F 35% 30.21 in 10.0 mi North 9.2 mph - N/A   Clear
5:33 PM 15.8 °F 6.1 °F -5.8 °F 38% 30.18 in 10.0 mi North 6.9 mph - N/A   Clear
5:53 PM 15.8 °F 8.6 °F -7.6 °F 35% 30.22 in 10.0 mi NNE 4.6 mph - N/A   Clear
6:13 PM 14.0 °F 6.5 °F -7.6 °F 38% 30.23 in 10.0 mi NNE 4.6 mph - N/A   Clear
6:33 PM 12.2 °F - -7.6 °F 41% 30.24 in 10.0 mi Calm Calm - N/A   Clear
6:53 PM 10.4 °F 0.8 °F -7.6 °F 44% 30.25 in 10.0 mi North 5.8 mph - N/A   Clear
7:13 PM 8.6 °F 2.0 °F -7.6 °F 48% 30.26 in 10.0 mi North 3.5 mph - N/A   Clear
7:33 PM 8.6 °F 2.0 °F -7.6 °F 48% 30.27 in 10.0 mi North 3.5 mph - N/A   Clear
7:53 PM 5.0 °F - -9.4 °F 52% 30.27 in 10.0 mi Calm Calm - N/A   Clear
8:13 PM 3.2 °F -4.2 °F -9.4 °F 56% 30.27 in 10.0 mi North 3.5 mph - N/A   Clear
8:33 PM 1.4 °F - -9.4 °F 61% 30.28 in 10.0 mi Calm Calm - N/A   Clear
8:53 PM -2.2 °F - -11.2 °F 66% 30.29 in 10.0 mi Calm Calm - N/A   Clear
9:13 PM -4.0 °F - -11.2 °F 71% 30.30 in 10.0 mi Calm Calm - N/A   Clear
9:33 PM -7.6 °F - -14.8 °F 71% 30.31 in 10.0 mi Calm Calm - N/A   Clear
9:53 PM -7.6 °F - -14.8 °F 71% 30.31 in 10.0 mi Calm Calm - N/A   Clear
10:13 PM -7.6 °F - -14.8 °F 71% 30.32 in 10.0 mi Calm Calm - N/A   Clear
10:33 PM -9.4 °F - -16.6 °F 71% 30.32 in 10.0 mi Calm Calm - N/A   Clear
10:53 PM -11.2 °F - -18.4 °F 70% 30.33 in 10.0 mi Calm Calm - N/A   Clear
11:14 PM -11.2 °F -20.6 °F -18.4 °F 70% 30.33 in 10.0 mi ENE 3.5 mph - N/A   Clear
11:33 PM -11.2 °F - -16.6 °F 77% 30.33 in 10.0 mi Calm Calm - N/A   Clear
11:53 PM -13.0 °F - -18.4 °F 77% 30.34 in 10.0 mi Calm Calm - N/A   Clear